Time,TemperatureF,DewpointF,PressureIn,WindDirection,WindDirectionDegrees,WindSpeedMPH,WindSpeedGustMPH,Humidity,HourlyPrecipIn,Conditions,Clouds,dailyrainin,SolarRadiationWatts/m^2,SoftwareType,DateUTC
2013-05-12 00:03:00,-999.0,-99.9,-100.00,ESE,113,0.0,4.0,100,0.00,,,0.29,0.000000,,2013-05-12 04:03:00,
2013-05-12 00:10:00,53.0,53.0,-100.00,ENE,57,0.0,2.0,100,0.00,,,0.29,0.000000,,2013-05-12 04:10:00,
2013-05-12 00:43:00,53.0,53.0,-100.00,ENE,57,0.0,2.0,100,0.00,,,0.29,0.000000,,2013-05-12 04:43:00,
2013-05-12 00:52:00,53.0,53.0,-100.00,ENE,57,0.0,2.0,100,0.00,,,0.29,0.000000,,2013-05-12 04:52:00,
2013-05-12 01:02:00,53.0,53.0,-100.00,ENE,57,0.0,2.0,100,0.00,,,0.29,0.000000,,2013-05-12 05:02:00,
2013-05-12 01:10:00,53.0,53.0,-100.00,NNE,30,0.0,0.0,100,0.00,,,0.29,0.000000,,2013-05-12 05:10:00,
2013-05-12 01:32:00,53.0,53.0,-100.00,NNE,30,0.0,0.0,100,0.00,,,0.29,0.000000,,2013-05-12 05:32:00,
2013-05-12 01:42:00,53.0,53.0,-100.00,NNE,30,0.0,0.0,100,0.00,,,0.29,0.000000,,2013-05-12 05:42:00,
2013-05-12 01:52:00,53.0,53.0,-100.00,NNE,30,0.0,0.0,100,0.00,,,0.29,0.000000,,2013-05-12 05:52:00,
2013-05-12 02:02:00,53.0,53.0,-100.00,NNE,30,0.0,0.0,100,0.00,,,0.29,0.000000,,2013-05-12 06:02:00,
2013-05-12 02:10:00,53.0,53.0,-100.00,ENE,71,0.0,2.0,100,0.00,,,0.29,0.000000,,2013-05-12 06:10:00,
2013-05-12 02:42:00,53.0,53.0,-100.00,ENE,71,0.0,2.0,100,0.00,,,0.29,0.000000,,2013-05-12 06:42:00,
2013-05-12 02:52:00,53.0,53.0,-100.00,ENE,71,0.0,2.0,100,0.00,,,0.29,0.000000,,2013-05-12 06:52:00,
2013-05-12 03:02:00,53.0,53.0,-100.00,ENE,71,0.0,2.0,100,0.00,,,0.29,0.000000,,2013-05-12 07:02:00,
2013-05-12 04:10:00,52.0,52.0,-100.00,ESE,119,0.0,1.0,100,-99.99,,,0.29,0.000000,,2013-05-12 08:10:00,
2013-05-12 04:32:00,52.0,52.0,-100.00,ESE,119,0.0,1.0,100,-99.99,,,0.29,0.000000,,2013-05-12 08:32:00,
2013-05-12 04:42:00,52.0,52.0,-100.00,ESE,119,0.0,1.0,100,-99.99,,,0.29,0.000000,,2013-05-12 08:42:00,
2013-05-12 04:53:00,52.0,52.0,-100.00,ESE,119,0.0,1.0,100,-99.99,,,0.29,0.000000,,2013-05-12 08:53:00,
2013-05-12 05:01:00,52.0,52.0,-100.00,ESE,119,0.0,1.0,100,-99.99,,,0.29,0.000000,,2013-05-12 09:01:00,
2013-05-12 05:10:00,51.0,51.0,-100.00,ESE,109,0.0,1.0,100,0.00,,,0.21,0.000000,,2013-05-12 09:10:00,
2013-05-12 05:33:00,51.0,51.0,-100.00,ESE,109,0.0,1.0,100,0.00,,,0.21,0.000000,,2013-05-12 09:33:00,
2013-05-12 05:43:00,51.0,51.0,-100.00,ESE,109,0.0,1.0,100,0.00,,,0.21,0.000000,,2013-05-12 09:43:00,
2013-05-12 05:53:00,51.0,51.0,-100.00,ESE,109,0.0,1.0,100,0.00,,,0.21,0.000000,,2013-05-12 09:53:00,
2013-05-12 06:03:00,51.0,51.0,-100.00,ESE,109,0.0,1.0,100,0.00,,,0.21,0.000000,,2013-05-12 10:03:00,
2013-05-12 06:10:00,51.0,51.0,-100.00,East,85,0.0,1.0,100,0.01,,,0.22,4.000000,,2013-05-12 10:10:00,
2013-05-12 06:33:00,51.0,51.0,-100.00,East,85,0.0,1.0,100,0.01,,,0.22,4.000000,,2013-05-12 10:33:00,
2013-05-12 06:42:00,51.0,51.0,-100.00,East,85,0.0,1.0,100,0.01,,,0.22,4.000000,,2013-05-12 10:42:00,
2013-05-12 06:52:00,51.0,51.0,-100.00,East,85,0.0,1.0,100,0.01,,,0.22,4.000000,,2013-05-12 10:52:00,
2013-05-12 07:03:00,51.0,51.0,-100.00,East,85,0.0,1.0,100,0.01,,,0.22,4.000000,,2013-05-12 11:03:00,
2013-05-12 07:10:00,52.0,52.0,-100.00,WSW,243,1.0,2.0,100,0.00,,,0.19,19.000000,,2013-05-12 11:10:00,
2013-05-12 07:32:00,52.0,52.0,-100.00,WSW,243,1.0,2.0,100,0.00,,,0.19,19.000000,,2013-05-12 11:32:00,
2013-05-12 07:42:00,52.0,52.0,-100.00,WSW,243,1.0,2.0,100,0.00,,,0.19,19.000000,,2013-05-12 11:42:00,
2013-05-12 07:52:00,52.0,52.0,-100.00,WSW,243,1.0,2.0,100,0.00,,,0.19,19.000000,,2013-05-12 11:52:00,
2013-05-12 08:02:00,52.0,52.0,-100.00,WSW,243,1.0,2.0,100,0.00,,,0.19,19.000000,,2013-05-12 12:02:00,
2013-05-12 09:10:00,56.0,52.0,-100.00,ENE,71,2.0,4.0,87,-99.99,,,0.17,159.000000,,2013-05-12 13:10:00,
2013-05-12 09:42:00,56.0,52.0,-100.00,ENE,71,2.0,4.0,87,-99.99,,,0.17,159.000000,,2013-05-12 13:42:00,
2013-05-12 09:52:00,56.0,52.0,-100.00,ENE,71,2.0,4.0,87,-99.99,,,0.17,159.000000,,2013-05-12 13:52:00,
2013-05-12 10:02:00,56.0,52.0,-100.00,ENE,71,2.0,4.0,87,-99.99,,,0.17,159.000000,,2013-05-12 14:02:00,
2013-05-12 10:10:00,58.0,49.0,-100.00,SW,219,2.0,7.0,72,0.00,,,0.17,223.000000,,2013-05-12 14:10:00,
2013-05-12 10:42:00,58.0,49.0,-100.00,SW,219,2.0,7.0,72,0.00,,,0.17,223.000000,,2013-05-12 14:42:00,
2013-05-12 10:52:00,58.0,49.0,-100.00,SW,219,2.0,7.0,72,0.00,,,0.17,223.000000,,2013-05-12 14:52:00,
2013-05-12 11:01:00,58.0,49.0,-100.00,SW,219,2.0,7.0,72,0.00,,,0.17,223.000000,,2013-05-12 15:01:00,
2013-05-12 11:10:00,62.0,48.0,-100.00,WSW,256,5.0,9.0,61,0.00,,,-99.99,434.000000,,2013-05-12 15:10:00,
2013-05-12 11:34:00,62.0,48.0,-100.00,WSW,256,5.0,9.0,61,0.00,,,-99.99,434.000000,,2013-05-12 15:34:00,
2013-05-12 11:42:00,62.0,48.0,-100.00,WSW,256,5.0,9.0,61,0.00,,,-99.99,434.000000,,2013-05-12 15:42:00,
2013-05-12 11:53:00,62.0,48.0,-100.00,WSW,256,5.0,9.0,61,0.00,,,-99.99,434.000000,,2013-05-12 15:53:00,
2013-05-12 12:02:00,62.0,48.0,-100.00,WSW,256,5.0,9.0,61,0.00,,,-99.99,434.000000,,2013-05-12 16:02:00,
2013-05-12 12:10:00,61.0,44.0,-100.00,WSW,251,3.0,8.0,54,0.00,,,0.17,408.000000,,2013-05-12 16:10:00,
2013-05-12 12:33:00,61.0,44.0,-100.00,WSW,251,3.0,8.0,54,0.00,,,0.17,408.000000,,2013-05-12 16:33:00,
2013-05-12 12:42:00,61.0,44.0,-100.00,WSW,251,3.0,8.0,54,0.00,,,0.17,408.000000,,2013-05-12 16:42:00,
2013-05-12 12:53:00,61.0,44.0,-100.00,WSW,251,3.0,8.0,54,0.00,,,0.17,408.000000,,2013-05-12 16:53:00,
2013-05-12 13:02:00,61.0,44.0,-100.00,WSW,251,3.0,8.0,54,0.00,,,0.17,408.000000,,2013-05-12 17:02:00,
2013-05-12 13:10:00,61.0,45.0,-100.00,SW,221,3.0,6.0,56,0.00,,,0.17,208.000000,,2013-05-12 17:10:00,
2013-05-12 13:42:00,61.0,45.0,-100.00,SW,221,3.0,6.0,56,0.00,,,0.17,208.000000,,2013-05-12 17:42:00,
2013-05-12 13:53:00,61.0,45.0,-100.00,SW,221,3.0,6.0,56,0.00,,,0.17,208.000000,,2013-05-12 17:53:00,
2013-05-12 14:01:00,61.0,45.0,-100.00,SW,221,3.0,6.0,56,0.00,,,0.17,208.000000,,2013-05-12 18:01:00,
2013-05-12 14:10:00,64.0,45.0,-100.00,WSW,257,3.0,9.0,50,0.00,,,0.17,391.000000,,2013-05-12 18:10:00,
2013-05-12 14:32:00,64.0,45.0,-100.00,WSW,257,3.0,9.0,50,0.00,,,0.17,391.000000,,2013-05-12 18:32:00,
2013-05-12 14:42:00,64.0,45.0,-100.00,WSW,257,3.0,9.0,50,0.00,,,0.17,391.000000,,2013-05-12 18:42:00,
2013-05-12 14:52:00,64.0,45.0,-100.00,WSW,257,3.0,9.0,50,0.00,,,0.17,391.000000,,2013-05-12 18:52:00,
2013-05-12 15:01:00,64.0,45.0,-100.00,WSW,257,3.0,9.0,50,0.00,,,0.17,391.000000,,2013-05-12 19:01:00,
2013-05-12 15:10:00,60.0,39.0,-100.00,West,265,6.0,13.0,46,0.00,,,0.12,144.000000,,2013-05-12 19:10:00,
2013-05-12 15:32:00,60.0,39.0,-100.00,West,265,6.0,13.0,46,0.00,,,0.12,144.000000,,2013-05-12 19:32:00,
2013-05-12 15:42:00,60.0,39.0,-100.00,West,265,6.0,13.0,46,0.00,,,0.12,144.000000,,2013-05-12 19:42:00,
2013-05-12 15:52:00,60.0,39.0,-100.00,West,265,6.0,13.0,46,0.00,,,0.12,144.000000,,2013-05-12 19:52:00,
2013-05-12 16:02:00,60.0,39.0,-100.00,West,265,6.0,13.0,46,0.00,,,0.12,144.000000,,2013-05-12 20:02:00,
2013-05-12 16:10:00,55.0,39.0,-100.00,West,276,6.0,14.0,54,0.00,,,0.11,188.000000,,2013-05-12 20:10:00,
2013-05-12 16:42:00,55.0,39.0,-100.00,West,276,6.0,14.0,54,0.00,,,0.11,188.000000,,2013-05-12 20:42:00,
2013-05-12 16:52:00,55.0,39.0,-100.00,West,276,6.0,14.0,54,0.00,,,0.11,188.000000,,2013-05-12 20:52:00,
2013-05-12 17:01:00,55.0,39.0,-100.00,West,276,6.0,14.0,54,0.00,,,0.11,188.000000,,2013-05-12 21:01:00,
2013-05-12 17:10:00,54.0,38.0,-100.00,WNW,284,3.0,12.0,54,0.00,,,0.11,255.000000,,2013-05-12 21:10:00,
2013-05-12 17:33:00,54.0,38.0,-100.00,WNW,284,3.0,12.0,54,0.00,,,0.11,255.000000,,2013-05-12 21:33:00,
2013-05-12 17:42:00,54.0,38.0,-100.00,WNW,284,3.0,12.0,54,0.00,,,0.11,255.000000,,2013-05-12 21:42:00,
2013-05-12 17:53:00,54.0,38.0,-100.00,WNW,284,3.0,12.0,54,0.00,,,0.11,255.000000,,2013-05-12 21:53:00,
2013-05-12 18:02:00,54.0,38.0,-100.00,WNW,284,3.0,12.0,54,0.00,,,0.11,255.000000,,2013-05-12 22:02:00,
2013-05-12 18:10:00,51.0,39.0,-100.00,NNE,25,1.0,7.0,63,0.00,,,0.05,28.000000,,2013-05-12 22:10:00,
2013-05-12 18:33:00,51.0,39.0,-100.00,NNE,25,1.0,7.0,63,0.00,,,0.05,28.000000,,2013-05-12 22:33:00,
2013-05-12 18:42:00,51.0,39.0,-100.00,NNE,25,1.0,7.0,63,0.00,,,0.05,28.000000,,2013-05-12 22:42:00,
2013-05-12 18:52:00,51.0,39.0,-100.00,NNE,25,1.0,7.0,63,0.00,,,0.05,28.000000,,2013-05-12 22:52:00,
2013-05-12 19:02:00,51.0,39.0,-100.00,NNE,25,1.0,7.0,63,0.00,,,0.05,28.000000,,2013-05-12 23:02:00,
2013-05-12 19:10:00,50.0,38.0,-100.00,NE,38,0.0,1.0,62,0.00,,,0.05,57.000000,,2013-05-12 23:10:00,
2013-05-12 19:42:00,50.0,38.0,-100.00,NE,38,0.0,1.0,62,0.00,,,0.05,57.000000,,2013-05-12 23:42:00,
2013-05-12 19:52:00,50.0,38.0,-100.00,NE,38,0.0,1.0,62,0.00,,,0.05,57.000000,,2013-05-12 23:52:00,
2013-05-12 20:01:00,50.0,38.0,-100.00,NE,38,0.0,1.0,62,0.00,,,0.05,57.000000,,2013-05-13 00:01:00,
2013-05-12 21:10:00,46.0,40.0,-100.00,West,268,4.0,10.0,79,-99.99,,,0.05,0.000000,,2013-05-13 01:10:00,
2013-05-12 21:42:00,46.0,40.0,-100.00,West,268,4.0,10.0,79,-99.99,,,0.05,0.000000,,2013-05-13 01:42:00,
2013-05-12 21:52:00,46.0,40.0,-100.00,West,268,4.0,10.0,79,-99.99,,,0.05,0.000000,,2013-05-13 01:52:00,
2013-05-12 22:02:00,46.0,40.0,-100.00,West,268,4.0,10.0,79,-99.99,,,0.05,0.000000,,2013-05-13 02:02:00,
2013-05-12 22:10:00,42.0,32.0,-100.00,SE,125,1.0,4.0,67,0.00,,,0.01,0.000000,,2013-05-13 02:10:00,
2013-05-12 22:32:00,42.0,32.0,-100.00,SE,125,1.0,4.0,67,0.00,,,0.01,0.000000,,2013-05-13 02:32:00,
2013-05-12 22:42:00,42.0,32.0,-100.00,SE,125,1.0,4.0,67,0.00,,,0.01,0.000000,,2013-05-13 02:42:00,
2013-05-12 22:52:00,42.0,32.0,-100.00,SE,125,1.0,4.0,67,0.00,,,0.01,0.000000,,2013-05-13 02:52:00,
2013-05-12 23:02:00,42.0,32.0,-100.00,SE,125,1.0,4.0,67,0.00,,,0.01,0.000000,,2013-05-13 03:02:00,
2013-05-12 23:10:00,36.0,31.0,-100.00,East,98,1.0,4.0,82,0.00,,,0.01,0.000000,,2013-05-13 03:10:00,
2013-05-12 23:33:00,36.0,31.0,-100.00,East,98,1.0,4.0,82,0.00,,,0.01,0.000000,,2013-05-13 03:33:00,
2013-05-12 23:42:00,36.0,31.0,-100.00,East,98,1.0,4.0,82,0.00,,,0.01,0.000000,,2013-05-13 03:42:00,
2013-05-12 23:53:00,36.0,31.0,-100.00,East,98,1.0,4.0,82,0.00,,,0.01,0.000000,,2013-05-13 03:53:00,